Meteo pe oră la Allaire

Astăzi, 19 Ianuarie, Marţi

Timp Temperatura Precipitaţii Vânt Presiune Umiditate
00:00 +7°C° 0 mm 6 m/s 762 mmHg 87%
01:00 +7°C° 0 mm 6 m/s 761 mmHg 87%
02:00 +7°C° 0 mm 6 m/s 761 mmHg 88%
03:00 +6°C° 0 mm 7 m/s 760 mmHg 89%
04:00 +7°C° 0 mm 6 m/s 760 mmHg 90%
05:00 +7°C° 0 mm 6 m/s 759 mmHg 91%
06:00 +7°C° 0 mm 5 m/s 759 mmHg 90%
07:00 +7°C° 0 mm 5 m/s 759 mmHg 90%
08:00 +7°C° 0 mm 6 m/s 758 mmHg 90%
09:00 +8°C° 0 mm 6 m/s 758 mmHg 90%
10:00 +8°C° 0 mm 6 m/s 757 mmHg 88%
11:00 +9°C° 0 mm 7 m/s 757 mmHg 86%
12:00 +10°C° 0 mm 7 m/s 756 mmHg 82%
13:00 +10°C° 0 mm 7 m/s 756 mmHg 82%
14:00 +10°C° 0 mm 7 m/s 755 mmHg 82%
15:00 +10°C° 0 mm 8 m/s 754 mmHg 82%
16:00 +9°C° 0 mm 7 m/s 754 mmHg 84%
17:00 +9°C° 0 mm 7 m/s 753 mmHg 86%
18:00 +8°C° 0 mm 7 m/s 753 mmHg 89%
19:00 +8°C° 0 mm 7 m/s 752 mmHg 86%
20:00 +9°C° 0 mm 7 m/s 752 mmHg 84%
21:00 +9°C° 0 mm 8 m/s 751 mmHg 81%
22:00 +9°C° 0.5 mm 7 m/s 751 mmHg 83%
23:00 +9°C° 0.5 mm 7 m/s 750 mmHg 86%

Mâine, 20 Ianuarie, Miercuri

Timp Temperatura Precipitaţii Vânt Presiune Umiditate
00:00 +8°C° 0.5 mm 7 m/s 750 mmHg 88%
01:00 +8°C° 0.8 mm 6 m/s 749 mmHg 87%
02:00 +8°C° 0.8 mm 6 m/s 748 mmHg 87%
03:00 +8°C° 0.8 mm 6 m/s 747 mmHg 86%
04:00 +8°C° 0.4 mm 6 m/s 747 mmHg 87%
05:00 +8°C° 0.4 mm 6 m/s 746 mmHg 87%
06:00 +8°C° 0.4 mm 6 m/s 746 mmHg 88%
07:00 +8°C° 0 mm 7 m/s 745 mmHg 87%
08:00 +8°C° 0 mm 7 m/s 744 mmHg 87%
09:00 +9°C° 0 mm 8 m/s 744 mmHg 86%
10:00 +9°C° 0.2 mm 8 m/s 743 mmHg 85%
11:00 +8°C° 0.2 mm 9 m/s 743 mmHg 84%
12:00 +8°C° 0.2 mm 9 m/s 742 mmHg 83%
13:00 +8°C° 0.1 mm 11 m/s 741 mmHg 81%
14:00 +9°C° 0.1 mm 12 m/s 740 mmHg 78%
15:00 +9°C° 0.1 mm 13 m/s 739 mmHg 76%
16:00 +9°C° 0.7 mm 13 m/s 738 mmHg 79%
17:00 +9°C° 0.7 mm 13 m/s 737 mmHg 82%
18:00 +9°C° 0.7 mm 13 m/s 737 mmHg 84%
19:00 +9°C° 0.4 mm 12 m/s 737 mmHg 86%
20:00 +9°C° 0.4 mm 12 m/s 737 mmHg 87%
21:00 +9°C° 0.4 mm 11 m/s 737 mmHg 88%
22:00 +8°C° 0.3 mm 10 m/s 737 mmHg 85%
23:00 +7°C° 0.3 mm 8 m/s 738 mmHg 83%

Poimâine, 21 Ianuarie, Joi

Timp Temperatura Precipitaţii Vânt Presiune Umiditate
00:00 +6°C° 0.3 mm 7 m/s 739 mmHg 80%
01:00 +5°C° 0 mm 6 m/s 740 mmHg 80%
02:00 +5°C° 0 mm 6 m/s 741 mmHg 80%
03:00 +5°C° 0 mm 5 m/s 742 mmHg 80%
04:00 +5°C° 0 mm 5 m/s 742 mmHg 81%
05:00 +5°C° 0 mm 5 m/s 743 mmHg 81%
06:00 +5°C° 0 mm 5 m/s 743 mmHg 82%
07:00 +5°C° 0.1 mm 6 m/s 743 mmHg 81%
08:00 +5°C° 0.1 mm 6 m/s 743 mmHg 80%
09:00 +5°C° 0.1 mm 6 m/s 742 mmHg 80%
10:00 +7°C° 0.6 mm 6 m/s 741 mmHg 84%
11:00 +6°C° 0.6 mm 7 m/s 740 mmHg 88%
12:00 +6°C° 0.6 mm 7 m/s 739 mmHg 92%
13:00 +7°C° 3.5 mm 9 m/s 737 mmHg 88%
14:00 +8°C° 3.5 mm 11 m/s 735 mmHg 85%
15:00 +9°C° 3.5 mm 13 m/s 734 mmHg 81%
16:00 +7°C° 1 mm 11 m/s 734 mmHg 83%
17:00 +6°C° 1 mm 9 m/s 735 mmHg 86%
18:00 +5°C° 1 mm 7 m/s 736 mmHg 88%
19:00 +4°C° 0.2 mm 6 m/s 737 mmHg 89%
20:00 +4°C° 0.2 mm 6 m/s 738 mmHg 89%
21:00 +3°C° 0.2 mm 5 m/s 739 mmHg 89%
22:00 +3°C° 0 mm 5 m/s 740 mmHg 88%
23:00 +4°C° 0 mm 4 m/s 741 mmHg 87%

22 Ianuarie, Vineri

Timp Temperatura Precipitaţii Vânt Presiune Umiditate
00:00 +4°C° 0 mm 4 m/s 742 mmHg 85%
01:00 +4°C° 0 mm 4 m/s 743 mmHg 85%
02:00 +4°C° 0 mm 4 m/s 743 mmHg 84%
03:00 +4°C° 0 mm 4 m/s 743 mmHg 84%
04:00 +4°C° 0 mm 3 m/s 743 mmHg 85%
05:00 +3°C° 0 mm 3 m/s 742 mmHg 85%
06:00 +4°C° 0 mm 2 m/s 742 mmHg 86%
07:00 +4°C° 0 mm 2 m/s 742 mmHg 86%
08:00 +5°C° 0 mm 2 m/s 742 mmHg 86%
09:00 +5°C° 0 mm 2 m/s 743 mmHg 86%
10:00 +6°C° 0.1 mm 2 m/s 743 mmHg 80%
11:00 +8°C° 0.1 mm 3 m/s 743 mmHg 75%
12:00 +8°C° 0.1 mm 4 m/s 743 mmHg 69%
13:00 +8°C° 0.1 mm 4 m/s 743 mmHg 71%
14:00 +8°C° 0.1 mm 5 m/s 743 mmHg 72%
15:00 +7°C° 0.1 mm 5 m/s 743 mmHg 74%
16:00 +6°C° 0 mm 5 m/s 744 mmHg 75%
17:00 +5°C° 0 mm 5 m/s 744 mmHg 77%
18:00 +3°C° 0 mm 5 m/s 745 mmHg 79%
19:00 +3°C° 0 mm 5 m/s 745 mmHg 78%
20:00 +3°C° 0 mm 5 m/s 745 mmHg 77%
21:00 +3°C° 0 mm 5 m/s 745 mmHg 76%
22:00 +3°C° 0.1 mm 5 m/s 745 mmHg 78%
23:00 +3°C° 0.1 mm 5 m/s 745 mmHg 79%

23 Ianuarie, Sâmbătă

Timp Temperatura Precipitaţii Vânt Presiune Umiditate
00:00 +5°C° 0.1 mm 4 m/s 744 mmHg 81%
01:00 +4°C° 0.2 mm 4 m/s 744 mmHg 84%
02:00 +4°C° 0.2 mm 4 m/s 744 mmHg 87%
03:00 +4°C° 0.2 mm 3 m/s 743 mmHg 90%
04:00 +3°C° 0.3 mm 4 m/s 743 mmHg 89%
05:00 +2°C° 0.3 mm 5 m/s 743 mmHg 88%
06:00 +2°C° 0.3 mm 6 m/s 743 mmHg 87%
07:00 +2°C° 0 mm 6 m/s 744 mmHg 86%
08:00 +2°C° 0 mm 6 m/s 745 mmHg 84%
09:00 +2°C° 0 mm 6 m/s 745 mmHg 82%
10:00 +3°C° 0 mm 6 m/s 746 mmHg 77%
11:00 +4°C° 0 mm 6 m/s 746 mmHg 71%
12:00 +5°C° 0 mm 7 m/s 747 mmHg 66%
13:00 +5°C° 0 mm 6 m/s 747 mmHg 67%
14:00 +6°C° 0 mm 5 m/s 747 mmHg 67%
15:00 +6°C° 0 mm 4 m/s 746 mmHg 68%
16:00 +5°C° 0 mm 3 m/s 746 mmHg 71%
17:00 +5°C° 0 mm 2 m/s 747 mmHg 75%
18:00 +4°C° 0 mm 2 m/s 747 mmHg 79%
19:00 +3°C° 0 mm 2 m/s 747 mmHg 79%
20:00 +4°C° 0 mm 1 m/s 747 mmHg 80%
21:00 +4°C° 0 mm 1 m/s 747 mmHg 80%
22:00 +4°C° 0 mm 1 m/s 747 mmHg 79%
23:00 +4°C° 0 mm 1 m/s 747 mmHg 78%

24 Ianuarie, Duminică

Timp Temperatura Precipitaţii Vânt Presiune Umiditate
00:00 +3°C° 0 mm 2 m/s 748 mmHg 78%
01:00 +3°C° 0 mm 2 m/s 748 mmHg 79%
02:00 +2°C° 0 mm 3 m/s 748 mmHg 81%
03:00 +2°C° 0 mm 3 m/s 748 mmHg 82%
04:00 +1°C° 0 mm 4 m/s 748 mmHg 82%
05:00 +1°C° 0 mm 4 m/s 748 mmHg 83%
06:00 +1°C° 0 mm 5 m/s 748 mmHg 83%
07:00 +1°C° 0 mm 5 m/s 749 mmHg 82%
08:00 +2°C° 0 mm 5 m/s 750 mmHg 81%
09:00 +2°C° 0 mm 5 m/s 750 mmHg 80%
10:00 +3°C° 0 mm 5 m/s 751 mmHg 75%
11:00 +4°C° 0 mm 6 m/s 751 mmHg 69%
12:00 +5°C° 0 mm 7 m/s 752 mmHg 64%
13:00 +5°C° 0 mm 6 m/s 752 mmHg 64%
14:00 +5°C° 0 mm 6 m/s 752 mmHg 65%
15:00 +5°C° 0 mm 6 m/s 752 mmHg 65%
16:00 +5°C° 0 mm 5 m/s 752 mmHg 70%
17:00 +3°C° 0 mm 5 m/s 753 mmHg 75%
18:00 +1°C° 0 mm 4 m/s 753 mmHg 79%
19:00 +1°C° 0 mm 4 m/s 753 mmHg 80%
20:00 +1°C° 0 mm 4 m/s 754 mmHg 81%
21:00 0°C° 0 mm 4 m/s 754 mmHg 81%
22:00 +1°C° 0 mm 4 m/s 754 mmHg 81%
23:00 +1°C° 0 mm 4 m/s 754 mmHg 81%
Arată mai mult

Formular de consimțământ

Meteoprog și furnizorii noștri de servicii pot stoca și accesa date personale, precum cookies, identificatori de dispozitiv sau alte tehnologii similare pe dispozitivul dumneavoastră și procesa astfel de date pentru a personaliza conținutul și reclamele, dar și pentru a oferi caracteristici de social media și pentru a analiza traficul.

  • Stocarea și/sau accesarea informațiilor pe dispozitivul dumneavoastră

    Cookies, identificatori de dispozitiv sau alte informații pot fi stocate sau accesate pe dispozitiv în scopurile indicate mai sus.

  • Reclame și conținut personalizat, evaluarea reclamelor și a conținutului, informații despre audiențe și dezvoltarea produselor

    Reclamele și conținutul pot fi personalizate pe baza unui profil. Pot fi adăugate date suplimentare pentru a personaliza mai bine reclamele și conținutul. Performanța reclamelor și conținutului poate fi măsurată. Pot fi obținute informații despre utilizatorii care au văzut reclamele și conținutul. Aceste date pot fi utilizate pentru a dezvolta sau îmbunătăți experiența utilizatorilor, sistemele și software-ul.

Dând clic pe ‘Sunt de acord’, permiteți utilizarea cookie-urilor menționate, a identificatorilor de dispozitiv, balizelor web sau altor tehnologii similare. Setările pot fi modificate din browser-ul dispozitivului dumneavoastră.

În anumite scopuri, interesele legitime pot prima asupra consimțământului. Puteți citi mai multe informații în acest sens în Politica privind Confidențialitatea Datelor și Cookie.